[[{"header":{"parameterUnit":"m.s-1","parameterCategory":1,"la1":30.2991,"la2":30.254,"lo1":-89.0895,"lo2":-89.0444,"dy":0.0017,"dx":0.0017,"nx":28,"ny":28,"refTime":"2024-04-28T21:00:00:Z","depth":0,"parameterNumber":2,"parameterNumberName":"U-component_of_WINDS"},"data":[0,0,0,0,0,0,0,0,0,0,0,0,0,0,0,0,0,0,0,0,0,0,0,0,0,0,0,0,0,0,0,0,0,0,0,0,0,0,0,0,0,0,0,0,0,0,0,0,0,0,0,0,0,0,0,0,0,0,-7.8831,-7.8832,0,-7.8918,-7.8919,-7.892,-7.8866,-7.8863,-7.8861,-7.8858,-7.8943,-7.8948,-7.8952,0,0,0,0,0,0,0,0,0,0,0,0,0,-7.8616,-7.862,-7.8831,-7.8832,-7.8833,-7.8918,-7.8919,-7.892,-7.8866,-7.8863,-7.886,-7.8857,-7.8942,-7.8947,-7.8953,0,0,0,0,0,0,0,0,0,0,0,0,0,-7.8706,-7.8621,-7.8831,-7.8817,-7.8816,-7.8917,-7.8919,-7.892,-7.8867,-7.8863,-7.8859,-7.8856,-7.894,-7.8946,-7.8953,-7.9072,0,0,-7.8974,-7.8977,0,0,0,0,0,0,0,0,-7.8701,-7.8714,-7.8818,-7.8818,-7.8818,-7.8877,-7.8874,-7.8971,-7.8868,-7.8848,-7.8858,-7.8854,-7.8924,-7.8932,-7.8956,-7.9076,-7.9079,-7.8975,-7.8979,-7.8982,-7.8984,0,0,0,0,0,0,0,-7.8695,-7.871,-7.8865,-7.8819,-7.8819,-7.8805,-7.8814,-7.8892,-7.8906,-7.8849,-7.8845,-7.8857,-7.8923,-7.895,-7.8958,-7.9081,-7.8975,-7.8981,-7.8985,-7.8988,-7.9301,-7.9305,0,0,0,0,0,0,-7.869,-7.8705,-7.8862,-7.8868,-7.8749,-7.8812,-7.8822,-7.8862,-7.8905,-7.8908,-7.886,-7.8854,-7.894,-7.895,-7.8961,-7.9101,-7.8982,-7.8989,-7.8993,-7.9297,-7.9302,-7.9307,0,0,0,0,0,0,-7.8686,-7.8705,-7.8859,-7.8786,-7.8804,-7.882,-7.8865,-7.8866,-7.8892,-7.8913,-7.8915,-7.8885,-7.8937,-7.8951,-7.9045,-7.9103,-7.8992,-7.8998,-7.9292,-7.9299,-7.9305,-7.9384,0,0,0,0,0,0,-7.868,-7.8704,-7.8749,-7.8787,-7.8808,-7.8943,-7.8869,-7.887,-7.8905,-7.8898,-7.8937,-7.894,-7.8935,-7.9035,-7.9052,-7.9111,-7.9003,-7.9287,-7.9295,-7.9303,-7.9376,-7.9392,-7.9406,0,0,0,0,0,-7.8673,-7.8767,-7.8752,-7.8771,-7.8866,-7.8946,-7.8958,-7.8952,-7.891,-7.8955,-7.8969,-7.8938,-7.9095,-7.9045,-7.9063,-7.9126,-7.9283,-7.9293,-7.9302,-7.9369,-7.9389,-7.9405,0,0,0,0,0,0,-7.8734,-7.8772,-7.8755,-7.8865,-7.8903,-7.8937,-7.8994,-7.8973,-7.9023,-7.9014,-7.9004,-7.9013,-7.9111,-7.9128,-7.9071,-7.9243,-7.9182,-7.9196,-7.9227,-7.9246,-7.9261,-7.9253,-7.9009,0,0,0,0,0,-7.8761,-7.8824,-7.8853,-7.8947,-7.8968,-7.8978,-7.9012,-7.9005,-7.9043,-7.9058,-7.9079,-7.9116,-7.9173,-7.9211,-7.9265,-7.938,-7.9386,-7.9432,-7.9447,-7.9459,-7.9469,-7.953,-7.955,-7.9338,-7.9338,-7.9337,0,0,-7.8815,-7.8844,-7.8884,-7.8961,-7.8989,-7.9053,-7.8991,-7.9062,-7.9109,-7.9068,-7.9158,-7.9175,-7.9216,-7.932,-7.9367,-7.9337,-7.9531,-7.9471,-7.948,-7.9484,-7.9542,-7.9562,-7.958,-7.9344,-7.9343,-7.9342,0,0,-7.8948,-7.8977,-7.9058,-7.9089,-7.9133,-7.914,-7.916,-7.9198,-7.9207,-7.9298,-7.9269,-7.9325,-7.9425,-7.9455,-7.9483,-7.963,-7.9603,-7.9648,-7.9724,-7.9784,-7.9801,-7.9815,-7.9866,-7.9884,-7.9659,-7.966,-7.966,0,-7.901,-7.9106,-7.9102,-7.9176,-7.9209,-7.9179,-7.926,-7.929,-7.9349,-7.9373,-7.934,-7.9464,-7.949,-7.96,-7.9636,-7.9661,-7.9682,-7.9641,-7.9799,-7.9814,-7.9827,-7.9875,-7.9894,-7.9665,-7.9664,-7.9663,-7.9663,0,-7.918,-7.9248,-7.9308,-7.9368,-7.9409,-7.9486,-7.9492,-7.9535,-7.9525,-7.9535,-7.9627,-7.9658,-7.9717,-7.9744,-7.9734,-7.9853,-7.9833,-7.98,-7.9738,-7.9853,-7.9897,-7.9916,-7.9672,-7.967,-7.9668,-7.9667,0,0,-7.9349,-7.9408,-7.943,-7.9457,-7.9505,-7.9557,-7.9633,-7.9693,-7.9728,-7.9772,-7.9833,-7.992,-7.989,-7.9922,-7.9916,-7.9969,-8.0082,-7.9929,-7.993,-7.9954,-8.0213,-8.0236,-8.0257,-8.0066,-8.007,-8.0073,-8.0209,0,-7.9483,-7.9616,-7.9616,-7.9738,-7.98,-7.9773,-7.9839,-7.9876,-7.9888,-7.9941,-7.9954,-8.0015,-7.9972,-7.9991,-8.0043,-8.0057,-8.0133,-8.0048,-8.0122,-8.0124,-8.0109,-8.0281,-8.0305,-8.0432,-8.0227,-8.023,-8.0232,0,-7.9655,-7.9706,-7.9835,-7.9875,-7.9901,-7.996,-8.0015,-8.0068,-8.0108,-8.0113,-8.0151,-8.0138,-8.0214,-8.0154,-8.0258,-8.02,-8.0231,-8.0243,-8.0248,-8.0251,-8.0183,-8.0287,-8.0473,-8.0491,-8.026,-8.0258,-8.0256,0,-7.9763,-7.9864,-7.9954,-7.9978,-8.0027,-8.007,-8.0092,-8.0129,-8.0166,-8.0214,-8.0237,-8.0294,-8.0324,-8.0368,-8.0369,-8.0326,-8.0474,-8.0414,-8.0479,-8.0479,-8.0508,-8.0506,-8.0699,-8.0534,-8.0533,-8.0533,-8.0532,0,-7.9911,-7.999,-8.0003,-8.0058,-8.0147,-8.0146,-8.0233,-8.0251,-8.0285,-8.0343,-8.0324,-8.0378,-8.0378,-8.0434,-8.0436,-8.0521,-8.0535,-8.054,-8.0539,-8.0541,-8.054,-8.0558,-8.0548,-8.0538,-8.0537,-8.0536,-8.0535,0,-8.0045,-8.0057,-8.0153,-8.0193,-8.0205,-8.0268,-8.0302,-8.0354,-8.0366,-8.0439,-8.0456,-8.0474,-8.0538,-8.0545,-8.0619,-8.0621,-8.0723,-8.0714,-8.0709,-8.0707,-8.077,-8.0763,-8.0979,-8.1007,-8.0826,-8.0828,-8.083,0,-8.0136,-8.0197,-8.0244,-8.0282,-8.0307,-8.0369,-8.0406,-8.0408,-8.0448,-8.05,-8.0546,-8.0609,-8.0658,-8.0762,-8.0781,-8.0838,-8.0828,-8.0901,-8.0836,-8.0836,-8.0827,-8.0822,-8.0827,-8.0911,-8.0913,-8.0915,-8.0916,0,-8.0297,-8.0301,-8.0356,-8.0415,-8.046,-8.0506,-8.0549,-8.0581,-8.0588,-8.0634,-8.07,-8.0739,-8.0816,-8.0878,-8.0935,-8.0956,-8.0937,-8.0937,-8.0955,-8.0955,-8.0949,-8.095,-8.074,-8.0931,-8.093,-8.0929,-8.0928,-8.0927,-8.0411,-8.0464,-8.0505,-8.0568,-8.0601,-8.0642,-8.0693,-8.0712,-8.0768,-8.0831,-8.083,-8.0902,-8.0942,-8.1016,-8.1043,-8.1099,-8.1075,-8.11,-8.1106,-8.1112,-8.1118,-8.0943,-8.1109,-8.1109,-8.1109,-8.1108,-8.1108,0,-8.0568,-8.0595,-8.0653,-8.0714,-8.0763,-8.0744,-8.0791,-8.0833,-8.0898,-8.0937,-8.0988,-8.1064,-8.1124,-8.1149,-8.1208,-8.1249,-8.1241,-8.1264,-8.1259,-8.1264,-8.1137,-8.1115,-8.1269,-8.1269,-8.1269,-8.1268,-8.1268,-8.1268,-8.0656,-8.0744,-8.0753,-8.0857,-8.0882,-8.0954,-8.0982,-8.102,-8.1051,-8.1138,-8.1189,-8.1205,-8.1239,-8.1301,-8.1355,-8.1361,-8.1382,-8.1408,-8.141,-8.129,-8.1273,-8.1258,-8.1237,-8.1414,-8.1414,-8.1532,-8.1534,-8.1534]},{"header":{"parameterUnit":"m.s-1","parameterCategory":1,"la1":30.2991,"la2":30.254,"lo1":-89.0895,"lo2":-89.0444,"dy":0.0017,"dx":0.0017,"nx":28,"ny":28,"refTime":"2024-04-28T21:00:00:Z","depth":0,"parameterNumber":3,"parameterNumberName":"V-component_of_WINDS"},"data":[0,0,0,0,0,0,0,0,0,0,0,0,0,0,0,0,0,0,0,0,0,0,0,0,0,0,0,0,0,0,0,0,0,0,0,0,0,0,0,0,0,0,0,0,0,0,0,0,0,0,0,0,0,0,0,0,0,0,4.2152,4.2152,0,4.2139,4.2139,4.2139,4.2156,4.2157,4.2158,4.2158,4.2138,4.2137,4.2136,0,0,0,0,0,0,0,0,0,0,0,0,0,4.2187,4.2186,4.2152,4.2152,4.2152,4.2139,4.2139,4.2139,4.2156,4.2157,4.2158,4.2159,4.2139,4.2137,4.2136,0,0,0,0,0,0,0,0,0,0,0,0,0,4.2173,4.2186,4.2152,4.2159,4.216,4.2139,4.2139,4.2139,4.2156,4.2157,4.2158,4.2159,4.2139,4.2137,4.2136,4.2106,0,0,4.2131,4.213,0,0,0,0,0,0,0,0,4.2173,4.2171,4.2158,4.2159,4.2159,4.2151,4.2144,4.2127,4.2156,4.2157,4.2158,4.2159,4.2141,4.2139,4.2135,4.2105,4.2104,4.213,4.2129,4.2129,4.2128,0,0,0,0,0,0,0,4.2174,4.2172,4.2147,4.2158,4.2159,4.2161,4.216,4.2141,4.2144,4.2157,4.2158,4.2157,4.2141,4.2136,4.2134,4.2104,4.213,4.2129,4.2128,4.2127,4.2051,4.205,0,0,0,0,0,0,4.2175,4.2173,4.2147,4.2146,4.2169,4.216,4.2159,4.2152,4.2144,4.2144,4.2156,4.2158,4.2139,4.2136,4.2134,4.2099,4.2129,4.2127,4.2126,4.2052,4.2051,4.205,0,0,0,0,0,0,4.2176,4.2173,4.2148,4.216,4.2157,4.2158,4.2151,4.2151,4.2146,4.2143,4.2143,4.2151,4.2139,4.2136,4.2114,4.2099,4.2126,4.2125,4.2053,4.2052,4.205,4.203,0,0,0,0,0,0,4.2177,4.2173,4.2163,4.216,4.2156,4.2129,4.215,4.215,4.2144,4.2146,4.2138,4.2138,4.214,4.2116,4.2112,4.2097,4.2123,4.2054,4.2052,4.2051,4.2032,4.2028,4.2024,0,0,0,0,0,4.2178,4.2155,4.2162,4.2159,4.2144,4.2128,4.2126,4.2131,4.2143,4.2132,4.213,4.2138,4.2101,4.2114,4.2109,4.2093,4.2055,4.2053,4.2051,4.2033,4.2029,4.2025,0,0,0,0,0,0,4.2153,4.2155,4.2162,4.2138,4.2134,4.2131,4.2117,4.2125,4.2115,4.2117,4.2122,4.212,4.2097,4.2093,4.2106,4.2065,4.208,4.2077,4.2068,4.2064,4.206,4.2061,4.2122,0,0,0,0,0,4.2146,4.2135,4.2136,4.2115,4.2112,4.2115,4.2109,4.2114,4.2108,4.2105,4.2102,4.2094,4.2081,4.2072,4.206,4.2032,4.203,4.2019,4.2015,4.2012,4.2009,4.1995,4.1991,4.2042,4.2042,4.2042,0,0,4.2128,4.2128,4.212,4.211,4.2107,4.2094,4.2113,4.2099,4.2089,4.2102,4.2082,4.2079,4.2071,4.2046,4.2035,4.2042,4.1995,4.2009,4.2007,4.2005,4.1993,4.1988,4.1983,4.2041,4.2041,4.2041,0,0,4.2091,4.209,4.2073,4.207,4.2066,4.2069,4.2065,4.2062,4.2062,4.2043,4.2053,4.2041,4.2018,4.2013,4.2007,4.1971,4.1977,4.1966,4.1947,4.1933,4.1929,4.1926,4.1913,4.1909,4.1963,4.1963,4.1963,0,4.2069,4.2053,4.2062,4.2048,4.2044,4.2058,4.204,4.2036,4.2028,4.2023,4.2033,4.2007,4.2002,4.1977,4.1968,4.1963,4.1958,4.1967,4.193,4.1926,4.1923,4.1911,4.1906,4.1962,4.1962,4.1962,4.1962,0,4.2027,4.2016,4.2002,4.1997,4.1991,4.1975,4.1981,4.1973,4.1979,4.1981,4.1961,4.1957,4.1945,4.1939,4.1943,4.1915,4.192,4.1929,4.1944,4.1916,4.1906,4.1901,4.196,4.1961,4.1961,4.1961,0,0,4.1972,4.1975,4.1969,4.1968,4.1966,4.1957,4.1942,4.1933,4.1927,4.1921,4.1908,4.189,4.19,4.1893,4.1897,4.1886,4.1859,4.1896,4.1896,4.189,4.1829,4.1822,4.1817,4.1864,4.1863,4.1863,4.183,0,4.1935,4.1912,4.1921,4.1896,4.1886,4.1901,4.1888,4.1885,4.1887,4.1877,4.1878,4.1866,4.1879,4.1876,4.1865,4.1864,4.1847,4.1867,4.1851,4.1851,4.1853,4.1811,4.1803,4.1772,4.1825,4.1825,4.1824,0,4.1889,4.1885,4.1861,4.1863,4.1859,4.1847,4.1841,4.1832,4.1829,4.1831,4.1826,4.1833,4.1818,4.1834,4.1813,4.1827,4.1821,4.182,4.1819,4.1818,4.1835,4.1808,4.1762,4.1758,4.1818,4.1818,4.1819,0,4.1853,4.184,4.1825,4.1823,4.1825,4.1817,4.1817,4.1815,4.181,4.1804,4.1801,4.1792,4.1787,4.178,4.1785,4.1796,4.1763,4.1779,4.1764,4.1764,4.1755,4.1756,4.1708,4.1752,4.1752,4.1752,4.1752,0,4.1811,4.1795,4.1809,4.1799,4.1782,4.1792,4.1775,4.1776,4.1775,4.1765,4.1776,4.1766,4.1773,4.1764,4.1767,4.175,4.1747,4.1748,4.1749,4.1747,4.1747,4.1743,4.1745,4.1751,4.1751,4.1751,4.1752,0,4.1767,4.1775,4.1759,4.1763,4.1764,4.1752,4.1755,4.1745,4.1749,4.1736,4.1734,4.1739,4.1729,4.1733,4.1721,4.1724,4.1702,4.1706,4.1704,4.1705,4.1689,4.1691,4.1637,4.1631,4.1678,4.1678,4.1678,0,4.174,4.1729,4.1733,4.1729,4.1729,4.1721,4.1717,4.1727,4.1722,4.1719,4.171,4.1702,4.1695,4.1678,4.1679,4.1671,4.1675,4.1657,4.1673,4.1672,4.1675,4.1676,4.1675,4.1653,4.1652,4.1652,4.1651,0,4.1691,4.1697,4.1691,4.1688,4.1684,4.1681,4.1679,4.1674,4.1684,4.1678,4.1669,4.1665,4.1655,4.1646,4.1639,4.1638,4.1646,4.1647,4.1643,4.164,4.164,4.1641,4.1695,4.1647,4.1648,4.1648,4.1648,4.1649,4.1655,4.1647,4.1649,4.1643,4.1644,4.1642,4.1635,4.1639,4.1632,4.1627,4.1632,4.1622,4.1621,4.1613,4.1611,4.1602,4.1609,4.1603,4.1602,4.16,4.1599,4.1642,4.1601,4.1601,4.1601,4.1601,4.1601,0,4.1608,4.1611,4.1606,4.1604,4.16,4.1611,4.161,4.1605,4.1597,4.1596,4.1591,4.1581,4.1574,4.1576,4.1569,4.1562,4.1565,4.1559,4.156,4.156,4.1592,4.1597,4.1557,4.1557,4.1557,4.1557,4.1557,4.1557,4.1583,4.157,4.1576,4.1563,4.1566,4.1558,4.1556,4.1555,4.1555,4.1545,4.1539,4.1542,4.1542,4.1536,4.153,4.1531,4.1527,4.152,4.1522,4.1553,4.1557,4.1561,4.1566,4.1519,4.1519,4.149,4.149,4.149]}]]